Tracking 19146 objects as of 24-Apr-2018
HD Live streaming from Space Station
objects crossing your sky now

SL-16 DEB

Track SL-16 DEB now!
10-day predictions


NORAD ID: 23408
Int'l Code: 1994-077E
Perigee: 845.4 km
Apogee: 1,163.5 km
Inclination: 71.0 °
Period: 105.1 minutes
Semi major axis: 7375 km
RCS: 0.0824 m2 (small)
Launch date: November 24, 1994
Source: Commonwealth of Independent States (former USSR) (CIS)
Launch site: TYURATAM MISSILE AND SPACE COMPLEX (TTMTR)

Note: This is SATELLITE DEBRIS
aabbcc
Your satellite tracking list
Your tracking list is empty




NASA's NSSDC Master Catalog

Two Line Element Set (TLE):
1 23408U 94077E   18113.51208382 +.00000023 +00000-0 +63714-4 0  9997
2 23408 070.9847 132.7594 0215631 270.2098 247.0525 13.70621616170771
Source of the keplerian elements: AFSPC